Regional Weather Roundup
Issued by NWS

Home | Current Version | Previous Version | Text Only | Print | Product List | Glossary Off
Versions: 1 2 3 4 5 6 7 8 9 10 11 12 13 14 15 16 17 18 19 20 21 22 23 24 25 26 27 28 29 30 31 32 33 34 35 36 37 38 39 40 41 42 43 44 45 46 47 48 49 50

000
ASUS43 KLOT 101458
RWRIL

ILLINOIS REGIONAL WEATHER ROUNDUP
NATIONAL WEATHER SERVICE CHICAGO/ROMEOVILLE IL
1000 AM CDT THU JUL 10 2014

NOTE: "FAIR" INDICATES FEW OR NO CLOUDS BELOW 12,000 FEET WITH NO
SIGNIFICANT WEATHER AND/OR OBSTRUCTIONS TO VISIBILITY.

* THESE STATIONS ARE NOT UNDER NWS QUALITY CONTROL. THEY ALSO MAY NOT
  REPORT WEATHER SUCH AS PRECIPITATION OR FOG.

ILZ001-002-007-009-015-016-024-101600-
NORTHWEST ILLINOIS

CITY           SKY/WX    TMP DP  RH WIND       PRES   REMARKS
MOLINE         SUNNY     74  60  61 S7        30.15S
$$

ILZ003-004-008-010-011-017-018-101600-
NORTH CENTRAL ILLINOIS

CITY           SKY/WX    TMP DP  RH WIND       PRES   REMARKS
ROCKFORD       NOT AVBL
$$

ILZ005-006-012>014-019>023-101600-
NORTHEAST ILLINOIS

CITY           SKY/WX    TMP DP  RH WIND       PRES   REMARKS
CHICAGO-OHARE  MOSUNNY   73  52  47 CALM      30.17R
CHICAGO-MIDWAY MOSUNNY   73  57  57 VRB3      30.17R
AURORA         SUNNY     72  55  55 SW5       30.18R
WAUKEGAN       SUNNY     67  56  67 VRB6      30.18R
DUPAGE AIRPORT SUNNY     73  56  54 CALM      30.17R
WHEELING       SUNNY     72  57  59 CALM      30.19R
NORTHERLY ISL    N/A     67  60  78 E6          N/A
$$

LMZ740>746-101600-
SOUTHERN LAKE MICHIGAN

STATION/POSITION SKY/WX   TEMP    WIND        PRES    VSBY  WAVE
                          AIR SEA DIR/SP/G                  HT/PER
                          (F)     (DEG/KT/KT) (MB)    (MI)  (FT/S)
SOUTHERN BUOY              57 56   60/  6/  6 1021.7R         0
WAUKEGAN HARBOR            63     110/  2/  3 1023.0R
HARRISON CRIB              65      80/  7/  8   N/A
BURNHAM HARBOR             68      80/  5/  6   N/A
CALUMET HARBOR             67      50/  5/  7 1022.4R
MICHIGAN CITY              65      20/  8/  9   N/A
$$

ILZ025>027-034>036-040-047-049-050-058-095>099-101600-
WEST-CENTRAL ILLINOIS

CITY           SKY/WX    TMP DP  RH WIND       PRES   REMARKS
$$

ILZ028>032-037-038-041>044-048-051>054-059>061-101600-
CENTRAL ILLINOIS

CITY           SKY/WX    TMP DP  RH WIND       PRES   REMARKS
PEORIA         NOT AVBL
SPRINGFIELD    SUNNY     77  60  55 VRB5      30.17R
TAYLORVILLE    NOT AVBL
$$

ILZ033-039-045-046-055>057-062-063-101600-
EAST-CENTRAL ILLINOIS

CITY           SKY/WX    TMP DP  RH WIND       PRES   REMARKS
CHAMPAIGN      SUNNY     74  59  59 NE5       30.17S
$$

ILZ079-100>102-101600-
SOUTHWEST ILLINOIS

CITY           SKY/WX    TMP DP  RH WIND       PRES   REMARKS
ALTON          SUNNY     75  64  69 NE6       30.16S
CAHOKIA*       SUNNY     77  61  57 E6        30.14F
$$

ILZ064>066-069>071-074>076-080>082-084>086-088>090-092>094-101600-
SOUTH-CENTRAL ILLINOIS

CITY           SKY/WX    TMP DP  RH WIND       PRES   REMARKS
CARBONDALE     SUNNY     77  61  57 NE5       30.13S
MARION         MOSUNNY   77  63  61 NE6       30.14S
$$

ILZ067-068-072-073-078-083-087-091-101600-
SOUTHEAST ILLINOIS

CITY           SKY/WX    TMP DP  RH WIND       PRES   REMARKS
$$

ABBREVIATIONS USED IN REMARKS
   TC - TEMPERATURE IN CELSIUS
  WCI - WIND CHILL INDEX
   HX - HEAT INDEX
  VSB - VISIBILITY
$$



USA.gov is the U.S. government's official web portal to all federal, state and local government web resources and services.